Date String (YYYY-MM-DD hh:mm:ss) UTC,Instrument flags,Ambient pressure (hPa),Sample flow (lpm),Bypass flow (lpm),Sample temperature (°C),Ambient temperature (°C),ASC tube jacket temperature (°C),LED temperature (°C),Box temperature (°C),Sample RH (%),Mass concentration (μg/m³),Mass concentration (μg/m³)
DateTimeUTC,F1_M11,P_M11,Q1_M11,Q2_M11,T1_M11,T2_M11,T3_M11,T4_M11,T5_M11,U1_M11,X0_M11,X2_M11
2021-08-16 19:00:00,,0828.2,4.99,0.00,29.0,27.9,00.0,37.9,30.9,22.3,0022.40,0011.95
2021-08-16 19:01:00,,0828.2,4.99,0.00,29.0,27.0,00.0,37.9,30.6,22.4,0022.33,0011.91
2021-08-16 19:02:00,,0828.1,5.00,0.00,28.8,25.6,00.0,37.9,30.2,22.5,0021.41,0011.90
2021-08-16 19:03:00,,0828.4,5.00,0.00,28.7,25.8,00.0,37.9,30.2,22.7,0020.94,0011.85
2021-08-16 19:04:00,,0828.1,5.00,0.00,28.7,26.2,00.0,37.8,30.3,22.1,0020.88,0011.83
2021-08-16 19:05:00,,0828.2,5.01,0.00,28.7,26.6,00.0,37.8,30.4,22.0,0020.30,0011.82
2021-08-16 19:06:00,,0828.2,4.99,0.00,28.8,27.0,00.0,37.8,30.6,22.6,0019.25,0011.78
2021-08-16 19:07:00,,0828.1,5.02,0.00,28.8,27.4,00.0,37.8,30.7,21.8,0018.92,0011.78
2021-08-16 19:08:00,,0828.1,5.00,0.00,28.9,27.7,00.0,37.8,30.8,22.0,0018.91,0011.77
2021-08-16 19:09:00,,0828.1,4.99,0.00,28.9,27.9,00.0,37.9,30.9,22.5,0018.70,0011.76
2021-08-16 19:10:00,,0828.1,5.01,0.00,29.0,27.1,00.0,37.9,30.7,22.2,0018.14,0011.79
2021-08-16 19:11:00,,0828.1,5.00,0.00,28.8,25.8,00.0,37.9,30.3,22.2,0018.34,0011.86
2021-08-16 19:12:00,,0828.1,5.00,0.00,28.7,25.8,00.0,37.8,30.3,22.0,0018.30,0011.92
2021-08-16 19:13:00,,0828.1,4.99,0.00,28.7,26.2,00.0,37.8,30.4,21.8,0018.17,0012.01
2021-08-16 19:14:00,,0828.1,5.01,0.00,28.7,26.6,00.0,37.8,30.5,22.5,0017.94,0012.12
2021-08-16 19:15:00,,0828.1,5.00,0.00,28.8,27.0,00.0,37.8,30.6,23.0,0018.25,0012.22
2021-08-16 19:16:00,,0828.1,5.00,0.00,28.8,27.4,00.0,37.8,30.7,22.8,0019.31,0012.35
2021-08-16 19:17:00,,0828.1,4.99,0.00,28.9,27.7,00.0,37.8,30.8,22.7,0020.60,0012.46
2021-08-16 19:18:00,,0828.1,5.00,0.00,29.0,27.7,00.0,37.9,30.8,22.6,0022.44,0012.56
2021-08-16 19:19:00,,0828.0,5.01,0.00,28.9,26.3,00.0,37.9,30.4,22.8,0023.38,0012.67
2021-08-16 19:20:00,,0828.0,4.99,0.00,28.7,25.6,00.0,37.8,30.2,22.8,0024.56,0012.81
2021-08-16 19:21:00,,0828.0,5.01,0.00,28.7,26.0,00.0,37.8,30.3,23.1,0024.87,0012.89
2021-08-16 19:22:00,,0828.0,4.99,0.00,28.7,26.4,00.0,37.8,30.4,23.5,0024.76,0012.96
2021-08-16 19:23:00,,0828.0,5.01,0.00,28.7,26.8,00.0,37.8,30.5,23.8,0025.12,0012.99
2021-08-16 19:24:00,,0828.0,5.00,0.00,28.8,27.2,00.0,37.8,30.6,23.9,0025.90,0013.04
2021-08-16 19:25:00,,0828.0,5.01,0.00,28.8,27.5,00.0,37.8,30.8,23.6,0026.31,0013.12
2021-08-16 19:26:00,,0828.0,4.98,0.00,28.9,27.8,00.0,37.8,30.8,22.9,0026.51,0013.16
2021-08-16 19:27:00,,0827.9,5.01,0.00,28.9,27.1,00.0,37.8,30.6,22.1,0026.55,0013.19
2021-08-16 19:28:00,,0828.0,4.99,0.00,28.8,25.7,00.0,37.8,30.2,22.3,0026.80,0013.31
2021-08-16 19:29:00,,0827.9,5.00,0.00,28.7,25.7,00.0,37.8,30.2,22.8,0026.36,0013.45
2021-08-16 19:30:00,,0827.9,4.99,0.00,28.7,26.1,00.0,37.8,30.3,22.5,0026.12,0013.55
2021-08-16 19:31:00,,0827.9,5.00,0.00,28.7,26.5,00.0,37.8,30.4,22.9,0025.56,0013.60
2021-08-16 19:32:00,,0827.9,5.01,0.00,28.7,26.9,00.0,37.8,30.5,22.7,0025.36,0013.72
2021-08-16 19:33:00,,0827.9,5.01,0.00,28.8,27.3,00.0,37.8,30.6,23.2,0025.82,0013.92
2021-08-16 19:34:00,,0828.0,5.00,0.00,28.8,27.6,00.0,37.8,30.7,23.4,0026.72,0014.09
2021-08-16 19:35:00,,0827.9,4.99,0.00,28.9,27.9,00.0,37.8,30.9,23.1,0026.62,0014.16
2021-08-16 19:36:00,,0827.9,5.00,0.00,29.0,27.9,00.0,37.9,30.9,23.3,0026.62,0014.21
2021-08-16 19:37:00,,0827.8,5.01,0.00,28.9,26.6,00.0,37.9,30.5,22.5,0026.46,0014.38
2021-08-16 19:38:00,,0827.8,5.00,0.00,28.8,25.6,00.0,37.8,30.2,22.4,0025.97,0014.53
2021-08-16 19:39:00,,0827.8,5.02,0.00,28.7,25.9,00.0,37.8,30.3,22.8,0025.70,0014.61
2021-08-16 19:40:00,,0827.9,4.99,0.00,28.7,26.4,00.0,37.8,30.4,23.1,0024.54,0014.59
2021-08-16 19:41:00,,0827.9,5.00,0.00,28.7,26.8,00.0,37.8,30.5,22.7,0024.96,0014.67
2021-08-16 19:42:00,,0827.9,5.00,0.00,28.8,27.2,00.0,37.8,30.6,22.5,0024.98,0014.79
2021-08-16 19:43:00,,0827.9,5.00,0.00,28.8,27.5,00.0,37.8,30.8,22.1,0024.86,0014.89
2021-08-16 19:44:00,,0827.9,5.00,0.00,28.9,27.8,00.0,37.8,30.9,21.4,0025.01,0015.01
2021-08-16 19:45:00,,0827.9,5.00,0.00,29.0,28.1,00.0,37.9,31.0,20.7,0024.42,0015.22
2021-08-16 19:46:00,,0827.9,5.01,0.00,29.0,27.6,00.0,37.9,30.8,20.2,0025.12,0015.64
2021-08-16 19:47:00,,0827.9,5.01,0.00,28.9,26.1,00.0,37.9,30.4,21.2,0025.19,0016.09
2021-08-16 19:48:00,,0827.9,4.99,0.00,28.8,25.8,00.0,37.9,30.2,22.0,0025.46,0016.35
2021-08-16 19:49:00,,0827.9,5.00,0.00,28.8,26.2,00.0,37.9,30.4,21.5,0025.60,0016.51
2021-08-16 19:50:00,,0827.9,5.00,0.00,28.8,26.6,00.0,37.8,30.5,21.5,0025.55,0016.78
2021-08-16 19:51:00,,0827.9,5.00,0.00,28.8,27.0,00.0,37.8,30.6,19.3,0026.32,0017.32
2021-08-16 19:52:00,,0827.9,5.00,0.00,28.9,27.4,00.0,37.8,30.7,18.5,0026.43,0017.83
2021-08-16 19:53:00,,0827.9,5.00,0.00,28.9,27.7,00.0,37.9,30.8,19.1,0027.13,0018.29
2021-08-16 19:54:00,,0827.9,4.98,0.00,29.0,27.4,00.0,37.9,30.8,19.3,0027.57,0018.69
2021-08-16 19:55:00,,0827.8,5.02,0.00,28.9,25.9,00.0,37.9,30.3,20.2,0027.96,0019.14
2021-08-16 19:56:00,,0827.8,4.99,0.00,28.7,25.7,00.0,37.8,30.2,19.9,0027.56,0019.35
2021-08-16 19:57:00,,0827.7,5.00,0.00,28.7,26.1,00.0,37.8,30.3,19.2,0028.01,0019.45
2021-08-16 19:58:00,,0827.8,5.01,0.00,28.7,26.5,00.0,37.8,30.4,19.8,0027.94,0019.54
2021-08-16 19:59:00,,0827.8,5.00,0.00,28.8,26.9,00.0,37.8,30.6,17.4,0027.90,0019.69
